Theta_e
266 266 266 266 267 265 265 265 265 265 265 265 264 264 265 265 265 264 264 263 263 263 263 263 263 263 263 263 263 263 263 263 263 263 262 262 262 262 262 262 262 262 262 262 263 262 262 262 262 263 263 262 262 263 263 263 263 264 264 264 263 264 263 262 261 261 264 268 268 269 271 271 270 272 272 273 274 275 277 276 275 274 274 274 274
266 265 266 266 266 265 265 264 264 264 264 264 264 264 264 264 264 264 263 263 263 262 262 262 263 263 262 262 262 262 262 262 262 262 262 262 262 262 262 262 261 261 262 261 262 262 262 261 261 262 262 262 262 262 262 262 262 262 263 263 263 263 264 262 262 262 261 265 266 268 268 270 268 271 270 271 272 274 274 275 276 275 273 273 273
266 265 265 265 265 265 264 264 264 264 263 264 264 264 264 263 264 263 263 262 263 262 262 262 262 262 262 262 262 262 262 262 262 262 261 261 261 261 261 261 261 260 260 260 261 261 261 260 260 261 261 261 261 261 262 261 262 262 262 263 262 263 264 264 263 261 261 263 265 265 266 268 267 268 270 271 271 272 272 272 273 274 275 275 274
265 265 265 265 265 264 264 264 264 263 263 264 263 263 263 263 263 263 262 262 262 262 262 262 262 262 261 261 261 261 261 261 261 261 261 261 261 261 261 261 260 260 260 260 260 260 260 260 260 261 261 260 260 261 261 261 261 262 262 262 263 263 264 264 264 263 262 262 264 264 266 266 267 269 269 270 270 270 271 272 272 272 272 273 273
265 265 264 264 264 264 264 264 263 263 263 263 263 263 263 263 263 263 262 262 262 262 262 262 261 261 261 261 261 261 261 261 261 261 261 261 260 260 260 260 260 260 260 260 261 260 260 259 260 260 260 259 259 260 260 260 261 262 262 262 263 263 264 264 264 264 263 262 263 266 266 266 267 268 268 267 268 268 269 269 270 271 272 273 273
265 264 264 264 264 264 264 264 263 263 263 263 263 263 263 263 263 262 262 262 261 261 261 261 261 261 261 261 260 260 260 260 260 260 260 260 260 260 259 259 259 259 259 260 260 259 259 259 259 259 259 258 258 259 259 259 260 260 260 261 262 262 262 262 263 263 263 262 263 263 265 264 265 266 267 267 267 267 268 269 270 270 270 271 272
265 264 264 264 263 264 263 263 263 263 263 263 263 263 263 263 262 262 262 261 261 261 261 261 261 261 260 260 260 260 260 259 259 259 259 259 259 258 258 259 259 259 259 259 259 259 259 259 259 259 259 259 258 258 259 259 259 259 260 260 261 261 261 262 262 262 263 262 263 264 264 265 265 264 266 267 268 268 266 266 266 269 270 270 270
264 264 264 263 263 263 263 263 263 263 263 263 263 263 262 262 261 261 261 261 261 260 260 260 260 260 260 260 260 259 259 259 259 259 258 258 257 257 258 258 258 258 258 259 259 259 259 259 259 259 259 259 259 259 259 259 259 259 260 260 260 260 261 261 262 262 261 261 262 262 263 263 265 266 267 266 265 265 266 265 264 265 267 269 270
264 264 263 263 263 263 263 263 263 263 263 263 262 262 261 261 261 261 261 261 260 260 260 260 259 259 259 259 259 259 258 257 257 257 257 257 257 257 258 258 258 259 259 260 260 260 259 259 259 259 260 262 262 262 262 262 260 259 259 260 260 260 260 261 261 262 262 262 262 263 263 263 263 264 263 263 263 264 266 267 266 268 269 269 270
263 263 262 262 263 263 263 262 263 263 261 261 261 260 260 260 260 259 260 259 259 259 258 258 258 257 257 257 257 257 257 257 258 261 264 261 261 261 261 261 261 261 260 260 261 261 260 261 261 263 263 263 263 264 264 265 265 264 263 262 262 262 261 261 261 261 261 261 261 262 261 261 262 263 263 264 265 266 265 265 265 266 268 268 270
262 261 261 262 262 262 261 261 261 260 260 260 260 259 261 259 258 258 258 257 257 257 257 257 256 257 256 256 256 256 256 256 261 265 265 264 262 261 261 262 262 261 261 261 261 261 262 262 262 263 264 264 264 265 265 266 266 267 267 267 267 265 262 262 262 262 261 261 262 261 261 261 262 263 264 264 265 265 265 265 265 265 264 263 263
261 261 261 261 261 261 260 260 259 259 259 260 260 259 258 257 257 257 256 256 257 255 256 256 256 256 256 255 255 255 255 259 264 265 265 265 265 263 262 261 261 262 262 262 261 261 261 261 261 261 261 261 261 262 263 264 265 266 266 267 267 269 269 266 264 263 263 262 262 262 262 261 262 263 263 264 264 265 265 265 265 264 264 264 264
260 260 260 260 260 260 260 259 259 259 258 258 258 257 257 257 256 255 255 255 254 255 257 257 256 256 255 255 254 255 255 261 264 266 263 262 262 262 260 260 260 260 261 261 260 260 260 260 260 260 261 263 263 262 262 262 264 265 265 266 266 268 269 270 271 267 266 264 264 263 264 264 264 264 265 265 266 264 265 264 264 265 265 265 265
259 260 260 260 260 260 259 259 258 258 258 258 257 256 254 255 255 254 255 255 256 256 255 256 256 255 255 254 254 254 254 258 264 264 263 264 265 264 260 261 261 260 259 259 259 259 259 259 259 260 260 261 261 262 261 261 261 262 262 263 263 264 266 268 268 268 268 266 265 264 266 267 265 267 268 269 267 265 265 264 265 264 265 265 266
259 260 260 260 260 259 259 259 258 258 258 257 256 256 255 255 256 256 255 256 256 255 255 254 254 254 254 254 254 254 254 261 264 261 263 264 265 265 261 260 259 258 258 258 258 258 259 260 260 259 260 260 260 262 261 261 262 262 262 262 263 263 264 264 264 264 264 265 265 265 265 266 266 267 267 268 268 268 267 266 266 266 266 267 267
260 260 259 259 259 259 259 258 258 257 257 256 256 256 256 256 256 256 256 255 255 255 255 254 254 254 254 254 253 253 254 262 264 260 262 262 262 260 259 258 257 257 257 258 258 259 259 259 259 259 259 260 262 266 266 264 263 263 263 263 264 264 264 267 270 270 268 266 265 265 265 266 270 267 267 267 267 268 268 268 268 266 266 265 264
259 259 259 259 259 258 258 258 257 257 256 256 255 255 256 256 256 255 254 255 255 254 254 254 254 254 254 253 253 253 253 258 263 263 260 262 260 258 258 257 258 258 258 258 258 258 259 259 259 259 260 260 263 267 268 266 263 263 263 263 264 264 264 265 270 272 273 273 273 274 274 274 274 275 275 276 272 269 267 266 265 266 264 263 264
259 259 258 259 258 258 258 257 257 256 255 255 255 256 256 256 255 255 254 254 254 254 254 254 254 254 253 253 253 253 253 257 262 261 261 263 261 258 258 258 258 258 258 258 258 258 259 262 262 261 261 261 265 267 268 266 263 263 263 262 262 262 263 265 266 267 272 273 273 273 273 274 274 274 274 274 275 274 269 265 266 266 264 264 263
259 259 259 259 258 258 257 256 256 256 256 256 255 255 255 256 256 255 254 254 254 254 254 253 253 254 254 253 255 254 254 255 260 262 257 259 257 258 258 257 257 258 258 258 258 259 259 261 262 262 262 263 267 268 268 267 263 263 263 263 262 262 264 265 265 265 265 265 266 266 267 269 269 268 269 272 273 272 271 270 269 267 265 265 264
259 259 259 258 258 257 257 256 256 256 256 256 255 255 255 254 254 255 255 254 254 254 254 253 253 253 253 253 253 253 252 253 254 262 259 260 261 259 258 257 257 258 258 258 258 259 260 260 260 263 265 266 266 267 268 268 265 263 264 263 262 262 264 264 265 265 265 265 265 265 266 266 267 267 267 267 268 269 269 269 269 269 267 266 266
258 258 258 258 257 257 256 255 255 255 255 255 255 255 254 255 255 254 254 254 253 253 253 253 252 252 252 253 253 253 253 252 254 260 259 259 260 260 257 258 259 259 259 259 259 259 258 257 256 259 262 265 266 267 268 269 269 265 263 262 263 264 267 264 265 266 264 264 264 264 264 265 265 266 266 267 267 267 268 268 268 269 268 267 267
258 257 258 258 257 256 256 255 255 255 255 254 254 254 254 254 254 253 253 253 253 252 252 252 252 252 252 252 252 252 253 254 253 258 262 257 260 260 258 259 260 260 259 259 258 257 256 256 255 258 261 264 266 267 268 268 268 264 262 267 268 268 264 263 263 262 262 262 262 262 263 263 264 265 266 266 267 267 267 267 267 267 268 268 268
257 257 257 257 256 256 255 254 255 255 254 254 254 253 254 253 253 253 253 252 252 251 251 251 250 250 251 251 252 252 252 253 255 255 258 261 261 261 263 261 264 261 259 257 256 255 255 255 257 259 263 265 265 266 266 266 264 263 267 267 267 266 263 261 261 260 260 260 260 261 262 262 263 264 265 265 266 267 267 267 267 267 268 268 269
256 256 256 256 255 255 255 254 254 254 254 254 253 253 253 253 253 253 252 252 252 251 251 251 250 250 250 250 251 252 252 252 254 256 256 261 260 261 261 263 264 260 259 257 256 256 255 255 257 262 263 264 266 266 265 265 262 266 266 265 263 262 259 258 257 257 258 258 259 259 260 261 263 264 265 266 267 267 267 267 267 267 267 268 268
255 255 255 255 254 254 253 253 253 253 253 253 252 253 252 252 252 252 252 252 251 251 251 251 250 250 250 250 251 251 252 252 252 254 256 257 260 260 261 262 261 260 257 256 256 256 259 263 263 264 264 265 265 264 262 261 264 263 262 261 261 257 256 256 256 256 256 257 258 260 261 262 263 264 266 266 268 268 268 268 268 268 268 268 268
254 255 254 254 254 253 252 253 252 253 252 253 252 253 252 252 252 252 252 252 252 251 251 251 250 250 250 250 250 251 251 251 251 252 254 255 256 259 261 259 258 258 258 257 259 261 263 263 263 261 261 261 260 258 257 258 260 260 260 259 256 256 255 255 255 256 256 257 258 259 260 262 264 264 264 265 265 266 267 267 267 267 267 267 267
254 254 254 254 253 253 252 252 252 252 252 252 252 252 253 252 252 252 252 252 252 251 251 251 251 250 250 250 251 251 251 251 251 251 252 252 253 254 254 255 257 257 256 256 257 256 257 258 258 260 260 261 260 259 258 258 257 256 255 255 255 255 255 255 256 256 257 257 258 259 260 260 261 262 262 263 264 266 268 268 267 267 267 268 267
254 254 254 253 253 253 252 253 253 252 252 252 252 252 252 252 252 252 252 252 251 251 251 251 251 251 251 251 251 250 250 250 251 251 252 253 253 254 254 254 254 254 254 255 255 256 257 259 259 255 253 253 253 251 250 251 254 254 253 253 254 255 257 258 258 257 257 258 257 257 258 259 259 260 261 262 264 266 268 268 267 267 268 267 266
254 253 253 253 252 253 252 252 252 252 252 252 252 252 252 252 252 253 254 254 253 252 252 253 253 253 252 252 251 251 251 251 252 256 255 257 256 255 255 256 256 256 258 259 258 258 258 255 251 252 249 250 250 250 249 250 251 252 252 252 253 254 254 254 254 255 256 256 256 256 257 257 258 259 260 261 263 265 267 267 267 267 267 267 266
253 253 253 252 252 252 252 251 251 252 252 251 252 252 254 256 256 254 254 257 258 260 260 256 256 256 254 254 254 253 252 254 258 258 258 259 259 260 260 260 260 259 259 260 259 257 253 249 248 247 248 246 247 248 249 248 249 250 251 254 254 253 254 255 255 255 255 255 256 256 256 256 256 257 258 260 262 263 265 267 266 266 266 265 265
252 252 252 252 252 252 252 252 252 251 251 251 251 251 251 253 259 261 258 258 258 261 263 263 261 260 258 256 257 259 259 259 260 258 257 259 259 259 259 259 259 259 260 258 255 251 249 247 247 245 247 246 246 247 248 248 249 250 250 251 252 253 254 253 254 254 254 254 255 255 256 255 255 256 257 259 260 262 263 265 266 266 266 266 266
252 252 252 252 252 252 252 251 251 251 251 251 251 250 250 250 251 254 259 257 260 262 262 263 260 260 258 258 257 256 257 258 258 259 258 257 257 258 258 259 260 259 259 258 251 247 245 244 244 244 245 245 246 247 248 248 249 249 250 250 251 252 252 252 253 253 253 254 254 255 254 254 255 256 257 258 260 261 262 264 265 265 265 266 266
251 252 252 252 252 252 252 251 251 251 250 250 250 250 250 249 249 250 252 258 260 258 260 261 262 261 256 256 257 256 257 257 257 256 258 257 257 257 258 257 256 257 257 250 244 244 243 243 243 243 244 245 245 245 246 247 248 249 249 250 250 251 252 252 253 253 253 254 254 253 253 254 254 255 256 257 258 258 260 262 266 265 265 266 266
251 251 251 251 251 251 251 251 251 251 251 250 250 250 250 250 250 250 250 250 251 254 256 256 256 256 257 257 259 257 255 258 257 256 256 258 255 255 256 254 256 257 253 245 245 243 243 244 244 244 243 245 245 246 247 247 248 249 250 250 250 251 251 252 252 252 253 254 253 253 253 253 254 253 254 255 256 258 259 262 265 265 265 266 266
250 251 252 252 251 252 252 251 251 251 251 250 250 250 250 251 251 250 249 249 249 249 249 251 253 255 254 254 254 255 256 255 255 255 256 255 255 256 255 247 245 245 246 243 244 243 243 243 243 244 243 244 245 246 246 246 248 249 249 249 250 250 250 251 251 252 252 252 252 252 252 252 252 253 253 253 254 255 258 260 262 265 266 266 266
250 250 250 251 251 251 251 251 251 251 250 250 251 251 251 251 250 250 250 250 249 249 249 250 251 253 254 254 254 254 255 255 254 256 255 252 254 254 247 245 244 243 243 243 242 245 245 244 244 244 243 244 244 245 245 246 247 248 249 249 249 249 249 250 251 251 252 251 251 252 252 251 252 252 252 253 253 255 257 259 260 262 265 266 266
250 250 250 250 250 251 251 251 251 251 252 252 251 251 251 250 250 250 250 249 249 249 249 250 250 250 252 251 252 253 254 254 257 257 253 255 255 252 244 244 243 244 244 243 244 243 244 243 243 242 243 243 244 244 245 245 247 248 250 249 249 249 249 250 251 251 250 250 251 251 251 251 251 251 251 251 253 254 256 258 259 261 262 265 267
250 250 250 251 250 251 251 250 251 252 252 251 251 250 250 250 249 249 249 249 250 249 249 249 250 249 248 248 252 251 250 252 253 252 252 251 249 244 243 243 244 243 244 243 242 243 242 243 241 242 243 243 243 244 244 245 246 247 248 248 249 249 251 250 250 250 250 250 250 250 251 250 251 251 251 251 252 253 255 257 257 258 260 262 265
250 252 253 253 253 252 251 251 251 251 251 251 250 250 250 249 249 249 249 249 249 249 249 249 249 249 249 249 246 248 249 247 247 247 247 247 246 244 243 243 242 243 243 244 244 244 242 243 244 243 244 243 244 244 245 245 246 246 247 248 248 248 248 248 249 249 249 249 250 250 250 250 250 251 251 251 252 253 254 255 256 257 258 260 262
251 251 252 253 252 252 252 251 251 250 250 250 249 249 249 249 249 249 249 249 249 249 249 249 248 249 249 248 247 247 246 247 247 248 248 247 246 245 243 243 243 242 243 243 243 242 243 242 242 243 243 243 244 244 245 246 246 247 247 247 247 247 248 248 248 248 249 249 249 249 249 249 250 251 251 251 252 253 253 254 255 257 258 260 261
250 251 252 252 252 252 251 251 250 250 250 250 250 249 249 249 249 249 249 249 249 249 249 249 249 249 250 250 252 252 250 249 249 248 247 247 247 246 245 244 245 244 243 243 244 244 243 242 242 242 243 243 244 245 245 246 246 246 246 247 247 247 247 247 248 248 249 249 249 248 249 249 250 250 250 251 253 253 253 254 255 256 258 259 260
250 251 251 251 251 251 250 250 250 250 250 250 249 249 249 249 249 249 249 249 249 249 249 249 249 249 250 252 252 252 251 249 249 248 248 248 247 247 246 246 245 244 244 243 243 243 243 242 243 243 244 244 244 245 245 245 246 246 246 246 247 247 247 247 248 248 248 248 248 248 248 249 250 250 250 252 251 251 252 253 254 255 256 258 259
251 251 251 251 250 250 250 250 250 250 249 249 249 250 250 250 249 249 249 249 249 249 248 248 248 249 249 250 250 250 249 249 248 248 248 247 247 247 246 246 245 245 245 244 244 243 243 242 242 242 243 244 244 244 245 245 246 246 246 246 246 246 247 247 248 247 247 247 247 248 248 249 249 249 249 250 250 251 251 252 253 254 255 257 258
250 251 251 251 251 251 250 250 250 250 249 250 250 250 250 250 249 249 249 248 248 248 248 248 248 248 248 249 249 249 248 248 248 248 247 247 247 247 247 246 246 245 245 245 245 244 244 242 241 243 242 244 245 245 245 246 246 246 246 246 246 247 247 248 247 246 246 246 247 248 248 248 249 249 249 250 250 250 251 252 253 253 255 256 257
250 250 250 250 250 250 250 250 250 249 250 250 249 249 249 249 249 249 249 248 248 248 248 248 249 248 248 248 248 248 248 248 248 248 247 247 247 247 247 246 246 245 245 245 244 243 242 243 242 242 243 244 245 245 245 246 246 246 247 246 246 246 247 247 246 247 247 247 247 247 248 248 248 248 249 249 250 250 250 251 252 253 254 255 256
250 249 250 250 250 250 249 249 249 249 249 249 248 248 249 249 249 249 248 248 248 248 248 248 248 248 248 248 248 248 248 248 248 248 248 248 247 247 247 246 246 245 245 245 244 244 244 244 243 243 243 244 244 244 245 245 246 247 247 247 247 248 248 248 248 247 247 247 247 247 247 248 248 249 249 249 250 250 250 251 252 253 254 255 256
249 249 250 250 250 249 249 249 249 249 248 248 248 248 248 248 248 249 249 248 248 248 248 248 248 248 248 248 248 248 248 248 248 248 248 248 248 247 247 246 246 245 245 245 244 245 244 244 243 243 243 243 243 244 244 245 246 246 247 247 248 248 248 248 248 248 248 248 248 248 247 247 248 248 249 249 249 250 250 250 251 252 253 255 255
250 250 250 250 249 249 249 248 248 249 248 248 248 248 248 248 248 248 248 248 248 248 248 248 248 248 248 248 248 248 248 248 248 248 248 248 247 247 247 246 246 246 245 245 244 244 244 243 243 243 243 244 244 244 244 245 245 246 246 247 247 247 248 249 249 248 248 248 248 248 248 247 248 248 249 249 249 249 249 250 251 252 253 254 255
250 250 249 249 249 249 248 248 248 248 248 248 248 248 248 248 248 248 248 248 248 248 248 248 248 248 248 248 248 248 248 248 247 247 248 248 247 247 247 246 246 246 245 245 245 244 244 244 244 243 243 243 244 244 244 245 245 246 246 246 247 248 249 249 249 249 249 249 248 248 248 248 248 248 249 249 249 249 249 250 251 252 253 254 255
250 249 249 249 249 249 249 249 248 248 248 248 248 248 248 248 248 248 248 248 248 248 248 248 248 248 248 248 248 248 248 247 247 247 247 247 247 247 247 246 246 245 245 245 245 245 244 242 242 243 243 243 243 244 244 244 245 245 246 246 248 248 249 249 249 249 249 248 248 248 248 248 248 248 248 248 249 249 249 250 251 253 253 253 254
249 249 249 249 248 248 248 248 248 248 247 247 247 247 247 247 247 248 248 247 247 247 248 248 248 248 248 248 248 248 248 248 248 248 247 247 247 247 246 246 246 245 245 245 244 244 243 243 243 243 243 244 244 244 244 244 245 245 246 247 248 248 249 249 248 248 249 249 248 248 248 248 248 248 248 248 248 248 250 251 252 252 253 253 254
Wind_Speed
4 3 2 3 3 4 4 3 3 3 4 4 4 5 5 6 5 5 2 2 2 1 2 3 4 5 6 6 7 7 7 8 7 7 7 8 7 7 8 8 9 8 8 9 8 8 9 8 9 8 8 8 7 6 6 6 6 7 6 7 7 7 7 8 12 16 11 6 11 8 8 8 9 8 11 9 10 12 13 9 6 5 5 4 4
3 3 2 3 4 4 4 3 3 3 3 4 5 5 5 4 3 3 3 3 1 2 2 3 4 5 5 6 7 8 8 8 7 7 7 8 8 7 7 8 9 10 8 9 9 7 7 8 9 8 7 8 8 7 6 6 6 7 7 7 8 8 7 9 11 12 17 8 9 9 9 8 11 8 9 10 9 8 10 11 11 7 4 4 4
3 2 2 2 3 3 3 3 3 3 3 4 5 5 5 3 3 3 3 3 2 2 3 3 4 5 6 7 8 7 7 7 7 7 8 8 9 8 8 8 9 10 10 10 10 8 9 9 10 9 7 8 8 7 6 6 6 7 9 7 9 9 9 9 10 12 14 13 8 10 6 8 9 9 9 10 11 10 11 9 7 7 7 7 6
3 2 2 2 3 3 3 3 3 3 4 4 5 4 3 3 3 3 3 3 3 2 2 3 4 6 7 8 8 8 8 8 8 8 9 9 9 10 9 9 10 10 11 10 9 9 9 10 10 9 8 9 8 7 7 7 7 8 9 9 10 11 10 10 11 11 12 14 10 8 8 7 8 8 8 9 10 9 9 10 9 8 6 6 5
2 3 2 3 3 3 3 3 4 4 4 4 4 4 3 3 3 4 4 3 3 2 3 3 5 6 7 8 8 8 8 8 9 9 8 8 8 9 10 10 10 11 11 10 10 9 9 10 10 8 8 9 9 8 8 8 8 9 11 10 10 10 9 9 10 10 11 12 13 9 8 8 7 9 7 8 8 8 9 11 10 10 10 9 8
3 3 3 3 3 4 4 4 4 4 4 4 4 4 4 4 4 3 3 3 3 3 4 5 6 7 6 8 8 9 9 9 9 9 9 9 10 10 9 10 10 11 10 10 10 9 10 10 10 9 9 10 10 9 9 10 10 10 11 11 10 10 10 11 11 13 14 15 14 13 10 11 9 8 7 8 9 9 9 7 8 9 10 10 8
3 3 3 3 3 4 4 4 3 4 4 4 4 4 5 5 3 3 2 2 4 5 6 7 6 6 7 8 9 9 10 9 9 10 10 10 10 10 11 11 12 11 10 11 11 10 11 11 11 10 11 11 11 11 11 11 10 11 11 11 10 10 11 12 12 13 13 14 14 13 13 10 10 11 7 7 10 9 9 9 9 8 7 6 8
3 3 3 4 3 3 3 3 4 5 5 5 5 5 4 3 2 2 3 5 6 6 7 7 7 6 8 8 9 9 9 10 10 10 9 9 10 11 12 12 12 12 11 11 11 11 11 11 11 11 12 12 12 12 12 11 10 11 11 10 10 11 11 12 12 11 13 13 13 13 11 11 10 9 8 7 7 8 6 8 10 8 8 8 10
4 4 4 4 4 3 4 4 5 6 6 6 5 5 4 3 3 4 4 6 5 6 6 7 8 9 9 9 10 9 9 9 8 8 9 12 12 13 13 12 11 10 12 13 12 11 11 11 12 12 13 17 21 19 17 16 11 11 12 10 11 11 12 11 11 12 12 12 13 12 11 11 9 8 7 7 7 8 7 7 8 9 9 10 8
4 4 4 5 4 5 6 5 6 6 5 5 5 5 4 5 5 5 6 5 5 5 5 5 7 8 9 9 8 8 8 8 12 22 21 15 13 12 10 11 10 11 10 9 10 11 13 13 13 19 21 23 24 25 26 27 27 19 14 11 12 12 12 12 11 10 11 11 11 10 11 10 10 9 9 10 9 8 9 8 10 9 10 9 9
4 4 6 5 5 5 5 5 5 5 6 6 5 5 7 5 5 6 6 4 5 5 5 7 7 8 8 9 10 9 9 9 21 24 25 27 18 13 12 12 12 13 13 13 12 11 9 9 8 12 15 17 17 23 23 25 25 27 29 28 23 16 11 13 13 12 11 12 12 11 10 12 13 10 10 10 9 10 10 9 10 9 7 8 10
4 5 5 5 5 5 5 5 5 6 6 7 7 6 5 5 5 6 5 5 5 4 5 7 8 8 8 9 9 10 9 16 25 24 28 23 22 15 11 10 10 10 12 12 10 9 10 10 10 9 10 13 14 15 19 25 27 28 29 29 29 31 30 20 14 12 12 12 13 12 11 13 12 10 9 9 9 10 10 10 10 10 10 10 10
4 4 4 5 5 5 5 5 6 6 6 7 6 5 5 5 5 5 6 5 4 5 8 9 9 9 9 10 10 10 10 20 25 27 25 21 24 23 12 10 10 10 10 10 9 10 9 9 10 10 10 19 17 14 14 15 22 28 29 29 29 31 30 31 31 21 13 14 13 14 13 12 15 11 10 11 10 11 11 10 9 10 11 12 11
4 5 5 6 6 6 6 6 7 7 6 6 5 5 5 5 5 5 4 4 6 7 7 9 9 9 9 10 10 10 11 18 26 28 27 27 24 20 12 11 8 8 8 9 9 9 9 10 10 10 9 9 9 12 12 13 13 14 15 14 14 19 26 30 31 33 27 17 15 14 13 12 12 12 9 10 12 12 11 10 11 11 12 14 13
4 5 6 6 6 6 6 6 7 7 6 5 5 5 6 6 6 6 5 7 8 8 8 8 9 9 10 10 10 11 11 22 26 21 27 26 25 25 11 10 9 8 8 8 9 10 10 10 10 11 11 12 11 15 14 15 15 15 15 15 15 15 15 15 16 15 15 14 13 14 15 14 15 15 13 13 13 13 13 13 13 12 13 11 10
6 5 6 6 6 6 6 7 7 6 7 6 6 7 7 7 8 7 6 6 6 6 7 6 9 10 10 11 11 12 12 23 26 21 29 21 23 14 11 10 9 9 9 9 9 9 9 10 10 11 12 13 16 26 23 18 15 16 17 16 16 15 14 18 25 25 20 17 15 15 15 17 21 18 17 15 14 15 13 13 11 10 11 12 12
7 6 6 6 6 6 6 6 7 7 7 7 7 7 8 8 8 5 6 7 8 7 8 8 8 9 11 10 12 12 11 18 25 27 25 29 20 12 11 10 10 10 10 10 10 10 10 11 11 11 12 12 18 26 28 26 16 15 16 16 15 15 14 14 24 31 32 33 33 33 33 32 33 34 34 35 23 17 13 12 13 11 11 11 11
7 6 7 6 7 6 6 6 7 7 6 8 9 8 8 7 7 6 7 8 9 8 7 8 8 9 10 11 11 12 12 16 26 21 26 26 20 14 10 9 9 10 10 10 9 9 10 20 18 13 12 11 21 27 29 24 16 15 15 16 19 17 15 14 12 15 29 33 32 29 27 27 28 29 28 27 26 20 12 14 14 11 12 12 13
7 7 8 7 6 6 6 6 7 7 8 9 8 9 9 9 8 6 6 6 8 7 7 8 9 9 10 11 16 16 13 15 23 23 25 23 18 12 11 8 9 10 10 10 9 8 9 11 19 18 14 16 25 26 28 24 16 14 15 15 16 17 14 13 12 11 8 9 11 14 15 18 16 13 13 21 25 23 15 14 12 12 13 13 13
8 7 7 6 6 6 5 6 6 7 9 9 8 8 7 7 7 7 7 7 8 8 8 8 10 10 10 10 11 11 12 12 13 26 22 25 28 19 10 10 10 11 9 8 8 9 9 4 6 13 20 24 26 29 30 32 22 15 13 13 13 13 9 10 12 13 14 12 11 10 11 11 12 11 12 13 14 13 14 12 11 11 13 15 13
6 7 7 6 6 6 5 5 7 7 7 8 7 7 7 8 9 8 9 8 8 9 9 9 10 10 10 10 10 11 10 12 13 24 20 20 27 22 11 11 10 9 9 10 10 6 2 5 5 11 19 23 25 28 30 31 28 18 11 7 8 14 17 11 11 14 9 9 10 10 11 11 12 11 12 12 11 11 11 12 11 12 12 12 12
6 5 6 7 6 6 5 6 6 7 6 6 8 9 8 8 9 9 8 8 10 11 10 9 9 10 10 10 10 11 10 14 12 17 23 20 26 23 13 9 12 10 10 8 4 4 6 5 6 12 20 24 26 28 30 28 28 12 10 21 26 24 14 8 8 7 7 7 8 9 10 10 10 11 11 11 11 12 11 11 12 12 12 12 12
6 6 6 6 6 6 6 6 7 6 7 7 8 10 9 9 9 9 10 10 11 11 10 10 9 10 10 9 9 10 10 9 15 14 20 24 23 23 27 19 22 12 8 5 6 7 6 7 9 18 25 27 27 28 25 23 16 13 24 25 24 26 17 7 8 8 8 9 9 9 9 9 10 11 11 12 12 12 12 11 12 13 13 12 12
5 6 6 7 7 7 6 7 7 6 7 8 8 10 10 10 10 9 9 9 9 10 9 8 8 9 10 10 9 9 8 7 11 17 16 22 24 25 23 26 26 13 11 8 7 8 8 9 12 23 26 25 25 23 22 21 17 24 25 25 25 20 9 10 7 7 9 9 9 10 9 8 9 10 11 11 11 12 13 12 12 13 14 12 13
6 7 7 7 7 7 6 6 7 7 8 7 9 9 10 9 10 9 8 8 8 9 9 7 8 9 9 10 10 10 9 8 8 11 19 20 24 25 26 28 25 25 14 9 9 9 15 26 27 26 26 26 27 24 18 19 25 25 24 23 20 8 8 7 8 8 8 9 9 10 9 10 10 11 12 12 13 13 11 11 11 12 13 14 14
7 8 8 7 7 6 7 8 8 8 8 7 8 9 9 10 9 10 9 9 8 9 9 8 8 9 10 10 10 10 9 7 8 8 10 14 16 22 27 27 25 25 22 16 21 26 27 26 29 27 21 18 13 8 9 11 20 22 20 17 8 7 6 8 8 9 8 9 10 11 10 10 10 9 11 13 14 15 12 11 11 11 11 11 11
8 7 8 8 7 6 8 8 8 7 7 7 7 8 8 8 9 10 9 9 9 8 9 9 9 9 10 11 10 9 9 8 8 8 9 10 10 12 13 13 18 19 14 11 13 13 15 17 14 19 17 18 16 14 13 13 10 8 7 6 6 6 7 6 8 9 10 10 10 9 9 11 11 12 10 10 13 14 13 12 11 11 11 11 11
8 9 9 8 8 7 8 10 10 8 8 7 8 8 8 8 8 10 10 9 9 10 9 10 11 11 11 10 9 9 9 8 8 9 10 10 10 10 10 10 11 10 11 10 10 12 12 15 15 5 2 4 6 5 4 4 6 7 6 5 6 8 10 14 14 10 9 7 7 8 8 8 10 10 11 11 13 13 12 11 12 12 12 11 10
8 9 9 8 9 7 8 7 8 8 8 8 8 8 8 8 9 10 11 10 10 11 11 12 12 11 10 10 10 10 9 10 9 12 15 17 14 11 9 9 8 8 10 16 14 10 10 6 2 5 3 4 5 5 5 5 5 5 5 6 6 6 6 6 7 6 7 8 8 8 9 8 10 11 12 12 12 11 11 10 11 12 11 9 10
7 9 8 8 8 7 7 7 7 8 8 8 8 9 10 16 14 12 11 14 22 23 20 13 11 9 9 9 9 11 11 10 17 20 18 17 20 20 18 19 19 15 18 23 17 11 2 1 3 3 5 3 4 5 6 5 5 5 5 7 7 6 7 6 6 7 8 9 9 9 10 10 10 11 11 12 11 11 11 12 11 11 10 9 10
8 8 8 8 8 8 8 8 7 7 8 8 8 9 9 10 18 24 22 22 23 26 26 28 25 19 15 11 9 16 19 20 21 18 19 17 16 19 18 18 19 19 21 16 5 2 3 5 5 4 4 5 4 5 5 5 5 5 6 5 5 7 8 7 7 8 10 10 10 9 9 9 11 11 12 12 12 11 11 11 10 9 10 10 11
8 9 8 8 9 8 7 8 8 8 8 7 8 8 9 10 10 13 20 21 22 24 25 26 22 24 24 19 15 9 12 16 19 19 20 22 19 18 19 19 18 22 18 7 3 3 1 3 3 4 4 4 4 4 5 5 5 5 6 6 6 6 7 7 8 8 9 9 8 8 9 9 10 11 11 12 12 11 11 12 8 9 9 9 10
9 9 9 9 8 9 8 8 8 8 8 8 8 8 9 9 11 11 9 17 22 23 24 25 25 23 18 18 17 16 15 17 20 13 17 20 20 18 21 18 13 14 11 6 2 3 2 2 4 3 2 4 5 5 5 5 5 6 5 6 7 7 7 8 10 9 9 9 8 8 9 9 10 11 11 12 11 11 11 11 8 9 9 10 9
9 8 8 8 9 8 8 8 8 8 8 8 8 8 8 9 9 10 11 10 10 14 17 19 20 20 20 21 22 21 20 24 23 24 22 22 17 15 13 9 16 15 11 4 6 5 3 5 3 3 3 3 5 5 5 5 5 6 6 6 6 7 8 8 8 8 8 8 7 8 9 9 10 10 10 10 10 10 10 11 8 6 6 8 8
9 10 13 10 8 8 8 8 8 8 8 8 8 8 9 9 9 10 10 11 11 11 11 10 11 14 13 13 16 21 21 22 21 22 24 19 15 17 12 9 8 7 6 3 4 5 5 4 5 4 3 4 5 5 5 5 5 6 6 7 6 6 7 8 8 8 7 7 8 8 8 10 9 10 10 10 10 10 10 9 9 6 7 8 8
8 7 7 8 8 7 8 8 8 8 8 8 8 9 9 9 9 9 9 10 10 11 11 9 8 8 17 17 18 19 19 19 20 21 17 17 16 11 6 7 6 6 6 5 4 6 6 5 4 5 3 4 5 5 5 5 5 6 6 6 6 7 7 8 9 7 7 7 8 9 9 8 8 9 9 9 10 11 10 10 9 9 7 7 7
7 7 7 6 7 7 8 8 8 8 9 9 9 8 8 9 9 8 9 9 10 9 10 10 9 8 9 7 9 14 18 19 20 21 18 15 17 9 1 3 5 6 7 6 5 4 6 6 5 4 4 5 5 5 5 5 6 6 7 7 6 7 7 7 8 8 8 7 7 7 8 8 8 9 9 10 10 10 10 9 9 9 9 8 8
9 8 8 7 7 8 8 8 8 11 9 8 7 8 8 8 8 8 9 9 10 10 10 10 9 9 9 8 7 6 9 14 17 15 13 11 7 3 3 3 4 4 6 6 5 5 6 7 5 5 6 5 5 5 5 6 6 6 6 6 6 6 12 11 11 9 8 7 7 7 8 8 7 8 9 9 9 9 10 10 9 9 9 9 7
7 9 12 13 10 9 8 8 9 8 8 8 7 8 9 9 8 8 9 9 9 9 9 9 9 9 8 6 5 5 8 8 6 8 7 6 5 5 4 5 4 5 5 5 5 5 5 6 7 5 5 4 5 5 5 6 5 5 5 6 6 6 7 6 7 7 7 7 7 7 7 7 7 7 8 8 9 9 9 10 9 9 9 8 7
7 6 7 10 8 9 8 9 8 8 9 8 8 8 8 8 8 9 9 9 9 9 9 9 10 9 7 5 5 5 7 8 7 7 7 6 5 4 3 4 5 5 5 6 6 6 6 6 6 6 5 5 5 5 5 5 5 6 5 5 6 6 7 6 7 7 7 7 7 7 8 8 8 8 7 7 8 9 9 9 9 9 8 8 7
7 7 7 7 8 8 8 8 8 8 8 8 8 8 9 9 9 9 8 9 9 9 9 9 9 9 7 9 15 15 10 9 8 7 6 6 6 5 5 5 5 6 6 5 6 6 6 6 6 6 5 5 5 5 5 5 5 5 6 6 5 6 6 6 7 7 7 6 7 8 8 9 9 8 9 9 10 10 9 9 9 9 8 8 7
7 7 7 7 7 7 8 9 9 9 9 9 9 8 9 9 8 8 9 9 9 9 9 9 9 8 10 18 17 18 12 8 7 7 7 7 6 6 6 5 5 5 6 6 6 6 6 6 6 5 5 5 5 5 5 5 5 6 6 5 6 6 6 6 6 6 5 6 7 8 8 9 9 9 10 10 9 8 9 9 8 8 8 8 7
7 7 7 7 7 7 8 9 9 9 9 9 8 7 9 9 9 9 9 9 9 9 9 10 9 8 8 11 12 13 8 7 6 7 7 6 6 6 6 6 6 6 6 6 6 6 6 6 6 5 4 5 5 5 5 6 5 6 6 5 6 6 6 6 5 5 5 6 7 8 9 9 9 8 9 9 9 9 9 9 9 9 8 8 8
6 7 8 7 7 7 8 8 9 9 8 10 11 10 9 8 8 8 8 8 9 8 9 9 8 8 8 8 8 7 6 6 6 7 7 7 6 6 6 5 5 5 5 5 5 5 5 6 5 5 4 5 5 5 5 6 6 6 6 6 6 7 6 6 5 5 5 6 7 8 8 8 9 9 9 9 9 9 9 9 9 9 9 8 8
6 6 7 7 7 8 9 8 8 9 10 9 8 8 8 8 8 8 8 8 9 9 8 8 8 8 8 7 7 7 7 7 7 7 7 6 7 6 5 5 5 6 5 5 5 5 4 5 5 4 5 5 5 5 5 5 5 5 5 6 6 6 6 6 5 5 5 6 7 7 8 8 8 8 9 9 9 9 9 9 9 10 9 9 8
6 6 7 7 9 9 9 8 9 8 8 8 8 8 8 8 8 8 8 8 9 9 8 8 8 8 8 8 7 7 7 7 7 6 6 6 6 6 5 5 5 5 5 5 5 5 6 6 5 5 5 5 5 5 5 5 6 6 6 6 7 6 6 6 5 4 5 5 6 7 8 8 8 8 10 9 9 8 9 9 9 9 8 9 9
5 5 7 8 9 10 9 9 8 8 8 8 8 8 8 8 8 8 9 9 9 9 9 8 8 8 7 7 7 7 7 7 6 6 6 6 6 6 5 5 5 5 5 5 4 5 6 6 5 5 5 5 5 5 5 5 5 6 6 6 6 6 6 5 4 4 5 6 6 6 7 8 8 8 10 9 9 8 9 9 9 10 9 8 8
5 7 7 8 8 8 9 8 9 9 8 8 8 8 9 9 8 8 8 8 8 8 8 8 8 8 8 7 7 7 7 6 6 6 5 5 5 5 5 5 5 5 4 4 4 5 5 5 5 5 5 5 5 5 5 5 6 6 6 6 6 6 8 9 6 6 5 5 5 6 7 8 8 8 8 9 8 8 9 8 9 8 9 8 8
6 7 8 8 8 8 8 8 9 8 8 8 8 9 9 9 9 8 8 8 8 8 8 8 8 8 7 7 7 7 6 6 6 5 5 5 5 5 5 5 5 4 4 4 5 5 5 5 5 5 5 5 5 5 5 5 6 6 6 6 7 12 13 12 9 7 9 7 6 7 7 7 8 8 8 8 9 8 8 9 8 9 8 8 7
6 7 7 8 8 8 8 8 7 8 8 8 8 9 9 9 9 8 8 8 8 8 7 8 8 8 8 7 7 6 6 6 6 5 5 5 4 4 4 4 4 4 4 5 5 5 4 4 4 4 4 4 5 5 5 5 5 6 5 6 11 13 12 14 13 12 8 4 7 6 7 8 8 7 7 7 7 8 8 8 8 8 8 8 7
7 7 7 7 7 7 7 7 8 7 7 8 8 8 9 9 9 9 8 8 8 8 8 8 8 8 8 7 7 6 6 6 6 5 5 5 4 4 4 4 5 4 4 4 5 5 4 4 4 4 4 4 5 5 4 5 5 5 8 13 13 13 13 11 7 9 13 11 7 7 7 8 8 8 7 7 7 7 9 9 9 8 7 7 7
Wind_Direction
227 237 251 257 241 239 239 238 252 255 263 268 273 280 285 286 281 266 259 254 255 269 277 291 295 296 295 296 296 296 294 292 292 294 293 292 291 292 294 293 290 288 287 285 280 278 276 278 282 283 288 287 284 283 286 285 285 285 284 285 281 277 276 275 276 283 283 265 278 282 289 309 302 304 300 304 304 307 306 292 279 276 270 255 247
220 240 247 253 251 250 247 243 248 260 266 271 274 275 274 275 280 286 267 267 265 274 282 290 294 293 296 296 298 295 293 291 292 291 291 290 288 287 288 288 286 287 285 285 285 282 281 283 283 283 283 280 282 283 280 282 284 282 280 277 276 275 265 273 276 278 286 287 290 295 296 294 287 291 293 296 300 304 296 296 296 289 261 254 257
219 222 235 251 258 248 244 248 250 264 275 274 272 271 271 276 289 289 278 267 263 273 282 292 294 295 298 297 293 291 291 293 293 291 288 286 284 283 282 285 286 286 285 282 283 282 282 281 281 282 280 278 277 274 275 276 276 276 277 274 275 274 271 266 271 275 281 284 276 283 281 283 278 287 286 286 288 290 290 292 294 293 294 286 278
228 223 241 254 255 253 250 253 263 272 273 268 269 270 273 281 287 287 275 269 274 275 287 293 301 300 295 295 292 291 292 290 289 286 286 287 286 286 286 284 280 277 276 277 279 280 279 281 280 281 279 279 280 279 275 271 271 272 273 274 271 273 272 267 265 274 283 287 283 271 277 277 276 278 287 284 284 286 286 285 284 285 285 286 281
226 238 237 258 264 258 258 254 262 266 264 266 266 268 273 277 281 280 279 276 279 294 296 296 294 294 291 291 295 295 295 295 292 288 285 284 284 283 281 280 278 275 275 276 277 278 279 277 280 282 282 280 280 279 278 275 270 272 273 271 269 270 268 264 266 269 277 279 286 282 289 283 281 278 275 284 285 280 279 277 280 278 276 270 269
232 239 244 258 265 266 267 268 267 266 269 269 269 269 267 274 278 272 269 284 291 292 295 297 291 287 289 291 294 295 293 292 290 289 289 287 284 280 278 276 276 278 278 278 277 274 274 274 274 274 273 270 269 269 269 270 270 267 266 265 266 268 272 274 275 276 275 276 278 284 275 279 276 270 269 265 269 269 264 262 259 259 263 266 262
243 244 253 254 265 269 272 269 267 273 274 271 270 272 273 273 271 277 284 287 293 292 292 290 286 285 288 293 290 290 291 290 287 284 282 282 280 279 278 276 278 278 275 274 272 270 267 267 266 264 263 261 263 263 262 261 261 260 258 259 258 258 260 263 264 265 266 271 274 274 279 273 275 278 273 263 274 287 295 296 290 284 279 271 269
249 249 247 257 258 264 264 269 278 280 280 279 277 274 272 270 276 283 289 291 291 290 287 286 285 284 286 288 289 287 285 284 283 281 280 277 277 274 272 273 274 271 269 265 262 262 261 261 259 258 254 255 256 258 254 258 254 256 255 254 254 254 256 260 260 259 264 266 268 272 268 273 268 266 269 271 271 265 259 265 271 276 268 260 255
258 254 253 252 253 256 265 272 276 274 276 276 277 277 272 267 269 273 276 280 280 279 282 283 287 287 285 285 286 284 281 280 278 278 277 273 265 263 264 266 258 256 264 265 260 257 256 255 256 254 250 251 250 250 249 245 245 251 252 245 248 250 253 254 254 259 261 260 262 260 265 265 256 256 259 252 251 261 261 264 273 274 280 277 266
259 257 251 248 257 261 265 266 267 267 266 268 263 263 260 264 270 270 272 271 268 272 276 278 279 282 285 283 281 280 276 274 273 279 280 272 261 260 253 256 249 259 264 257 261 260 259 257 255 253 252 251 251 253 253 253 253 252 252 243 241 242 240 242 241 240 247 253 253 258 260 256 253 246 251 251 256 264 270 268 269 272 272 277 275
261 253 258 259 261 263 261 259 255 256 257 258 260 257 265 264 264 263 263 263 264 269 275 277 279 281 282 283 282 279 276 272 279 283 283 282 280 275 270 269 269 270 269 268 267 268 265 261 257 259 262 267 273 274 273 271 272 270 267 264 260 249 227 237 237 229 233 239 246 248 247 253 252 246 245 252 247 252 255 255 259 266 268 272 274
262 262 263 269 265 263 262 261 260 262 262 261 255 250 253 257 258 260 262 266 268 273 278 278 280 280 281 280 278 277 276 279 285 287 288 286 286 284 280 279 277 276 280 275 273 274 275 272 265 263 263 265 267 268 268 269 269 269 269 269 268 267 264 258 245 237 233 237 243 239 240 245 254 245 245 245 247 248 249 253 254 259 262 260 261
258 264 265 269 268 265 267 268 268 268 263 260 260 259 262 262 263 266 263 260 270 270 276 284 283 281 279 280 280 279 275 286 288 288 286 288 291 291 288 284 278 273 271 271 272 272 271 273 273 268 266 271 272 268 267 268 269 270 270 271 270 270 271 269 267 262 246 244 238 242 236 244 249 242 230 237 238 246 246 248 246 248 250 253 254
253 269 275 272 270 268 270 270 270 267 264 263 260 262 262 260 259 255 261 263 267 276 279 277 278 277 278 279 280 279 277 283 286 286 288 289 289 291 288 287 286 283 280 276 273 271 269 271 274 274 268 261 260 263 265 265 268 268 267 265 263 264 265 268 271 274 275 271 264 259 253 248 252 255 242 235 242 243 242 239 237 243 245 244 245
262 266 272 272 271 272 273 272 272 270 267 265 266 264 264 269 267 265 259 267 273 272 274 276 275 276 278 278 278 280 274 284 287 287 289 291 291 295 304 300 291 282 279 273 269 267 264 264 267 270 273 269 263 265 261 259 259 259 260 259 256 255 255 254 255 257 259 260 255 254 258 254 255 256 251 243 238 239 237 235 233 235 244 251 257
260 264 267 265 265 268 270 272 268 269 270 268 268 271 271 270 274 273 269 266 260 262 264 262 272 276 277 279 279 279 280 287 290 291 291 292 294 300 298 294 291 284 278 273 268 267 265 264 264 266 265 266 267 274 275 271 265 262 262 261 260 259 256 255 258 256 251 246 245 246 246 247 246 245 243 240 239 242 243 246 246 243 249 252 250
264 260 259 262 263 264 266 271 272 271 270 270 269 270 275 276 273 264 265 261 267 264 262 267 269 275 278 277 278 280 280 286 289 290 291 293 295 298 291 288 284 282 278 275 272 266 265 261 260 260 262 261 270 279 279 278 274 271 270 269 266 266 265 263 267 270 268 263 258 253 250 249 250 251 250 245 237 230 235 242 242 235 235 242 245
261 256 256 257 259 260 263 265 270 271 271 269 272 274 273 273 269 262 257 265 265 263 269 272 270 270 274 275 275 279 279 285 290 292 294 294 295 295 294 287 280 277 276 270 266 264 260 264 269 267 269 275 280 279 279 282 279 276 273 271 270 267 266 264 262 263 269 273 277 278 278 279 279 279 278 278 275 266 243 239 237 229 230 230 242
262 261 260 257 255 256 259 259 263 271 273 274 274 275 276 274 272 266 257 259 265 269 272 273 273 273 270 274 280 281 281 285 288 290 290 291 292 289 287 285 278 274 274 274 268 260 262 260 268 274 276 276 280 284 287 287 284 281 279 279 280 275 272 272 273 275 281 284 285 286 285 283 282 278 275 276 276 275 266 255 241 231 233 232 236
261 260 259 256 253 255 253 257 262 266 272 275 273 270 274 277 271 269 267 265 272 272 273 272 273 274 274 274 276 275 278 279 279 286 287 289 292 290 285 283 275 271 265 269 276 269 262 278 307 311 299 294 292 291 291 290 290 287 284 285 289 293 295 288 275 268 269 270 274 279 281 282 282 278 277 272 269 264 264 254 244 234 231 235 232
264 261 260 259 257 257 257 254 265 266 266 271 273 274 271 275 279 276 277 275 273 274 271 272 271 272 273 272 273 274 269 275 277 285 287 288 291 292 288 282 278 278 279 275 270 277 337 301 291 292 294 291 288 287 286 287 289 295 307 307 288 284 290 293 302 314 312 303 294 287 282 279 278 278 274 271 266 262 257 254 243 234 231 233 230
264 265 263 264 265 265 265 267 261 268 272 273 279 277 275 274 274 277 273 274 274 273 272 270 271 273 273 274 272 273 271 267 273 279 288 292 293 291 290 278 281 282 289 289 299 309 291 289 282 284 285 285 282 280 284 292 302 322 314 305 303 309 327 330 311 302 297 298 293 284 281 273 275 274 273 271 265 259 251 244 240 234 230 230 230
267 264 266 267 268 269 270 269 272 272 275 274 277 279 281 278 275 272 274 273 271 271 270 269 271 272 274 272 272 271 270 269 272 276 285 292 293 295 294 293 295 303 305 304 304 290 285 278 274 279 281 278 280 289 297 310 329 322 314 316 322 328 331 336 328 317 304 292 283 275 271 269 269 272 270 270 265 258 253 243 238 235 233 231 226
266 269 267 269 273 274 273 272 271 271 273 278 276 280 280 278 277 272 270 270 272 272 268 265 265 269 273 276 274 271 270 268 272 277 282 286 291 292 293 295 299 312 316 311 300 290 286 279 269 275 282 294 302 310 320 328 323 321 322 324 323 325 334 328 318 305 297 286 276 268 266 261 258 261 265 266 266 261 256 248 242 238 236 237 234
270 270 271 272 272 272 273 270 273 272 274 274 279 279 279 278 279 273 269 267 264 266 269 262 263 267 272 275 277 278 274 269 269 271 276 281 286 290 292 295 305 310 307 300 288 283 284 288 293 303 311 313 316 322 327 323 319 317 318 318 320 329 324 316 310 304 292 287 281 276 272 274 273 272 273 277 279 272 261 253 241 238 237 238 238
273 272 274 273 272 275 278 278 272 272 272 268 265 268 271 275 274 277 271 267 264 265 269 268 265 267 269 271 272 274 276 271 269 271 269 273 275 280 285 291 294 294 292 288 289 289 293 298 300 302 302 301 305 315 313 310 310 313 317 319 320 314 312 308 300 296 284 283 285 283 281 284 289 303 307 300 291 279 266 251 243 237 234 235 237
274 278 278 278 278 277 277 279 279 272 269 267 263 263 265 267 270 274 274 272 270 267 270 271 271 269 268 268 270 270 273 269 269 268 266 266 263 266 270 274 277 280 279 275 275 277 276 278 276 280 291 303 307 307 305 310 316 316 309 307 302 302 297 287 287 288 293 287 289 295 308 306 301 293 281 278 273 271 260 248 239 236 230 228 230
275 280 280 279 280 278 275 275 275 278 272 269 270 271 263 260 266 270 277 276 279 277 275 271 269 267 265 267 268 268 267 266 260 263 266 263 261 259 258 262 264 257 263 262 254 259 264 267 275 294 333 313 301 295 298 298 299 303 301 299 300 293 299 304 303 292 282 289 296 297 284 286 284 281 282 274 273 272 266 250 237 235 227 223 223
276 279 280 282 278 275 271 270 271 274 276 270 262 257 266 271 271 273 266 270 266 269 271 268 264 258 255 258 264 262 264 263 257 252 255 256 260 261 253 247 240 245 257 275 281 275 274 290 2 306 318 308 302 299 294 295 287 290 296 295 287 300 304 288 286 296 306 299 292 293 293 292 289 289 285 280 275 277 276 261 243 235 232 221 224
280 279 278 277 277 276 273 271 267 270 272 277 280 277 262 270 273 270 269 269 273 273 274 268 262 251 254 247 233 249 253 252 260 271 279 286 295 301 303 297 295 295 294 294 292 289 307 317 290 297 296 306 298 297 297 291 296 299 294 306 307 303 296 299 306 304 304 304 302 297 297 299 295 296 289 286 288 289 287 273 245 228 227 219 220
275 278 280 276 274 274 275 276 274 273 274 277 277 280 287 279 283 287 289 291 290 287 286 287 292 301 309 311 298 292 295 300 307 311 312 314 319 316 309 307 304 298 296 297 307 47 331 322 307 308 288 287 287 292 298 302 299 298 299 301 299 303 306 308 307 309 308 302 297 296 300 302 297 296 294 292 292 292 294 275 247 222 214 213 217
273 277 275 277 277 276 275 275 278 278 278 274 274 279 282 288 286 277 286 288 288 292 296 299 305 306 304 304 307 302 305 307 310 311 313 318 319 314 315 315 310 306 305 356 40 334 339 298 294 284 284 293 295 303 304 298 294 294 298 303 304 307 310 305 309 310 304 294 294 308 310 304 299 298 296 296 295 296 296 287 241 217 213 212 215
267 274 275 278 278 277 278 278 278 277 279 280 279 277 280 282 287 293 282 287 293 295 295 297 301 305 312 312 311 309 309 311 310 310 320 318 311 313 315 315 331 345 2 28 20 328 304 301 286 285 301 297 297 295 294 296 297 299 294 297 302 308 303 303 312 305 300 300 310 313 309 305 305 302 302 299 300 298 295 291 260 216 209 207 209
261 266 273 274 278 280 279 278 279 278 274 273 273 276 273 273 279 283 294 299 292 290 290 292 296 299 298 299 301 307 311 313 319 319 314 306 311 322 338 353 344 346 6 5 344 320 315 305 294 296 298 294 298 299 300 302 302 299 297 296 299 299 303 309 307 303 298 308 315 312 310 306 308 306 302 305 302 298 293 298 283 223 209 209 207
268 268 269 271 271 274 277 276 276 276 277 276 276 275 276 276 276 282 286 290 293 293 296 294 290 288 290 292 295 297 301 305 307 307 302 297 319 331 5 5 349 337 345 349 327 308 300 295 288 291 295 303 298 296 296 298 299 301 300 303 301 303 310 311 306 301 307 317 314 308 311 313 308 307 311 309 307 306 305 309 320 289 227 210 210
269 270 271 270 269 270 272 272 271 271 275 275 274 272 274 276 278 278 279 280 283 288 287 284 285 284 287 288 289 294 297 300 300 296 298 314 322 350 12 334 326 309 309 303 304 301 291 287 290 289 294 289 294 292 290 291 296 299 297 300 309 310 307 304 300 305 319 316 309 314 315 309 309 309 304 303 302 304 303 309 308 313 296 232 211
268 270 273 270 267 271 273 271 268 270 275 275 275 276 275 276 276 277 278 279 281 279 281 289 293 286 281 278 284 290 293 297 300 303 305 310 320 340 336 281 279 294 292 294 294 294 297 287 283 284 284 284 286 287 288 289 290 294 301 305 302 304 301 295 308 320 315 308 307 307 310 308 310 311 314 309 309 304 305 309 312 310 312 297 241
263 267 274 274 275 273 275 273 272 279 277 276 273 275 277 276 275 275 276 278 277 280 286 287 287 288 293 291 290 287 291 293 297 299 302 305 301 279 267 255 272 277 287 283 281 279 281 283 278 277 276 275 279 287 290 288 290 291 297 299 305 300 309 313 313 308 304 303 305 311 313 310 309 310 310 306 303 308 309 314 315 314 311 315 309
265 260 265 273 279 281 279 281 282 280 279 278 277 277 278 279 278 277 275 274 276 279 279 283 284 285 285 288 284 279 291 295 292 285 287 276 259 243 247 253 261 272 266 269 276 283 278 282 282 280 276 277 282 288 287 288 287 288 292 298 301 299 304 302 304 306 306 303 309 313 313 310 307 302 307 305 305 304 304 310 312 307 306 306 305
274 280 278 277 280 278 275 274 276 278 279 283 282 276 276 275 275 276 277 277 279 280 281 283 285 283 286 282 271 274 274 278 280 280 283 283 273 251 234 255 262 263 273 274 270 269 273 271 275 275 276 277 282 282 281 286 289 290 293 295 295 301 303 301 300 304 304 309 315 316 316 312 310 310 303 306 306 306 309 310 306 302 298 294 300
273 277 280 274 272 277 278 277 277 277 278 275 275 277 273 275 274 274 274 277 279 280 281 281 282 285 283 284 291 294 290 288 286 288 286 286 285 278 265 251 256 266 262 264 266 266 269 271 269 268 274 277 278 277 282 288 292 294 291 291 292 296 298 296 296 295 303 316 317 315 313 313 313 313 313 313 313 313 306 304 302 302 304 303 299
275 279 280 280 276 274 278 279 279 278 279 279 279 276 277 275 275 273 274 277 279 281 284 283 283 285 286 290 293 295 294 289 289 287 284 279 279 278 272 262 248 247 254 254 257 265 268 263 258 261 276 282 284 282 283 286 289 292 288 289 292 294 294 294 294 295 311 312 314 312 310 315 315 314 312 313 310 310 310 308 308 308 308 308 308
272 273 273 277 277 277 279 283 285 286 284 281 278 275 275 276 276 277 278 278 280 284 285 287 287 285 285 288 288 287 282 276 272 275 275 274 274 273 268 258 250 243 246 251 255 255 257 256 258 256 263 273 275 275 279 283 289 290 289 290 292 291 290 291 296 306 305 307 310 311 313 313 315 314 312 312 312 311 309 312 312 313 312 312 311
272 273 272 274 277 281 279 279 283 280 280 279 281 281 280 278 277 278 279 281 281 282 282 283 286 287 286 288 286 280 275 275 273 272 271 271 268 268 262 253 251 249 252 253 255 251 252 251 255 258 258 265 270 269 273 280 283 284 289 294 292 292 293 298 302 300 303 308 311 313 312 313 314 314 311 311 311 314 315 314 313 314 317 315 312
270 273 277 281 282 282 284 281 278 280 281 283 282 281 279 279 281 280 280 282 282 281 281 282 285 285 286 283 279 276 276 275 273 271 271 269 269 265 263 256 253 256 258 260 251 250 246 250 250 260 269 266 268 273 279 281 281 281 285 288 285 287 288 290 283 288 295 305 310 310 310 311 313 312 311 311 313 315 311 313 312 315 315 313 311
267 269 276 284 289 289 289 288 284 281 281 281 282 285 283 281 279 282 283 283 283 284 284 283 282 282 282 282 277 274 273 275 273 271 269 267 263 260 249 250 250 254 252 253 254 254 254 247 248 252 261 264 269 271 276 276 282 284 285 280 282 283 289 289 284 294 300 307 306 305 306 307 307 308 312 313 312 310 309 309 308 308 307 307 305
267 269 281 285 288 289 290 289 289 286 283 282 282 283 286 286 285 284 282 282 285 285 285 285 285 283 281 279 278 275 272 270 270 271 269 267 265 260 257 247 250 249 254 254 257 257 254 252 250 248 256 260 263 269 276 277 283 284 285 286 281 289 289 288 290 298 298 300 300 302 303 304 305 306 309 310 307 308 310 308 308 309 308 308 309
275 282 285 285 286 287 288 288 286 287 285 285 285 286 287 289 289 287 288 286 284 283 283 282 281 281 280 278 275 274 271 268 266 266 268 267 256 247 249 246 244 247 252 259 258 254 250 246 245 250 258 267 272 277 276 281 282 281 281 279 280 280 292 302 306 303 293 293 297 302 301 299 299 299 300 304 307 308 309 307 308 304 308 311 312
286 289 289 289 287 286 287 288 288 288 288 290 290 290 289 290 288 288 286 285 284 283 283 285 284 281 278 277 276 271 267 264 263 262 263 263 259 248 243 244 244 244 249 257 259 255 250 248 246 249 252 263 267 269 273 278 282 284 285 284 287 294 299 305 306 297 303 305 302 297 294 292 294 297 298 303 304 304 299 299 295 303 308 310 309
288 286 286 288 288 285 284 281 282 285 287 287 288 288 289 288 289 289 288 287 287 285 284 282 282 281 281 281 277 273 269 266 264 262 260 262 258 248 241 239 241 243 247 259 260 259 250 246 247 250 257 262 263 264 265 269 277 280 285 285 292 294 298 301 301 306 312 304 300 297 296 294 293 293 297 298 299 302 301 296 300 307 306 306 309
289 288 286 284 284 285 285 286 286 285 285 287 288 288 289 290 289 290 291 291 290 290 288 287 285 284 281 278 274 273 271 268 265 262 259 252 246 238 234 236 241 248 250 253 259 254 252 248 249 254 258 259 264 264 268 268 272 277 284 289 291 292 295 304 315 318 315 311 303 298 297 299 300 300 300 304 302 297 298 303 305 306 307 306 307